User: anonymous   Login
Location: Unspecified
(0.0000°N, 0.0000°E)
Time: 07:48:08
(UTC+00:00)
Language:

N. Korean satellite - Orbit

View from above orbital plane
View from above orbital plane
View from above satellite
View from above satellite

Ground track
Ground track

The orbit data is extracted from the following two-line orbital elements,

1 39026U 12072A   15212.17971820  .00004711  00000-0  21161-3 0  9995
2 39026 097.2807 242.2435 0047623 081.6014 279.0616 15.20591588145396
Epoch (UTC): 31 July 2015 04:18:47
Eccentricity: 0.0047623
inclination: 97.2807°
perigee height: 471 km
apogee height: 537 km
right ascension of ascending node: 242.2435°
argument of perigee: 81.6014°
revolutions per day: 15.20591588
mean anomaly at epoch: 279.0616°
orbit number at epoch: 14539

The dashed part of the orbit path shows where the satellite is in the earth's shadow,  

DLR